Time,TemperatureF,DewpointF,PressureIn,WindDirection,WindDirectionDegrees,WindSpeedMPH,WindSpeedGustMPH,Humidity,HourlyPrecipIn,Conditions,Clouds,dailyrainin,SoftwareType,DateUTC
2013-06-19 00:00:00,75.0,44.0,-100.00,North,-999,-999.0,-999.0,33,0.00,,,0.00,,2013-06-19 07:00:00,
2013-06-19 01:00:00,74.0,43.0,-100.00,North,-999,-999.0,-999.0,33,0.00,,,0.00,,2013-06-19 08:00:00,
2013-06-19 01:54:00,74.0,43.0,-100.00,North,-999,-999.0,-999.0,33,0.00,,,0.00,,2013-06-19 08:54:00,
2013-06-19 02:00:00,70.0,47.0,-100.00,North,-999,-999.0,-999.0,43,0.00,,,0.00,,2013-06-19 09:00:00,
2013-06-19 03:00:00,68.0,47.0,-100.00,North,-999,-999.0,-999.0,48,0.00,,,0.00,,2013-06-19 10:00:00,
2013-06-19 03:53:00,68.0,47.0,-100.00,North,-999,-999.0,-999.0,48,0.00,,,0.00,,2013-06-19 10:53:00,
2013-06-19 04:00:00,66.0,47.0,-100.00,North,-999,-999.0,-999.0,50,0.00,,,-99.99,,2013-06-19 11:00:00,
2013-06-19 05:00:00,63.0,45.0,-100.00,North,-999,-999.0,-999.0,52,0.00,,,0.00,,2013-06-19 12:00:00,
2013-06-19 06:00:00,62.0,45.0,-100.00,North,-999,-999.0,-999.0,54,0.00,,,0.00,,2013-06-19 13:00:00,
2013-06-19 07:00:00,62.0,46.0,-100.00,North,-999,-999.0,-999.0,57,0.00,,,0.00,,2013-06-19 14:00:00,
2013-06-19 07:53:00,62.0,46.0,-100.00,North,-999,-999.0,-999.0,57,0.00,,,0.00,,2013-06-19 14:53:00,
2013-06-19 08:00:00,66.0,47.0,-100.00,North,-999,-999.0,-999.0,49,0.00,,,0.00,,2013-06-19 15:00:00,
2013-06-19 08:53:00,66.0,47.0,-100.00,North,-999,-999.0,-999.0,49,0.00,,,0.00,,2013-06-19 15:53:00,
2013-06-19 09:00:00,68.0,46.0,-100.00,North,-999,-999.0,-999.0,45,0.00,,,0.00,,2013-06-19 16:00:00,
2013-06-19 10:00:00,69.0,46.0,-100.00,North,-999,-999.0,-999.0,43,0.00,,,0.00,,2013-06-19 17:00:00,
2013-06-19 10:53:00,69.0,46.0,-100.00,North,-999,-999.0,-999.0,43,0.00,,,0.00,,2013-06-19 17:53:00,
2013-06-19 11:00:00,72.0,46.0,-100.00,North,-999,-999.0,-999.0,39,0.00,,,0.00,,2013-06-19 18:00:00,
2013-06-19 12:00:00,75.0,45.0,-100.00,North,-999,-999.0,-999.0,34,0.00,,,0.00,,2013-06-19 19:00:00,
2013-06-19 12:53:00,75.0,45.0,-100.00,North,-999,-999.0,-999.0,34,0.00,,,0.00,,2013-06-19 19:53:00,
2013-06-19 13:00:00,78.0,43.0,-100.00,North,-999,-999.0,-999.0,29,0.00,,,0.00,,2013-06-19 20:00:00,
2013-06-19 14:00:00,79.0,42.0,-100.00,North,-999,-999.0,-999.0,27,0.00,,,0.00,,2013-06-19 21:00:00,
2013-06-19 15:00:00,82.0,41.0,-100.00,North,-999,-999.0,-999.0,24,0.00,,,0.00,,2013-06-19 22:00:00,
2013-06-19 15:53:00,82.0,41.0,-100.00,North,-999,-999.0,-999.0,24,0.00,,,0.00,,2013-06-19 22:53:00,
2013-06-19 16:00:00,81.0,41.0,-100.00,North,-999,-999.0,-999.0,24,0.00,,,0.00,,2013-06-19 23:00:00,
2013-06-19 17:00:00,84.0,38.0,-100.00,North,-999,-999.0,-999.0,19,0.00,,,0.00,,2013-06-20 00:00:00,
2013-06-19 18:00:00,83.0,40.0,-100.00,North,-999,-999.0,-999.0,22,0.00,,,0.00,,2013-06-20 01:00:00,
2013-06-19 19:00:00,82.0,40.0,-100.00,North,-999,-999.0,-999.0,23,0.00,,,0.00,,2013-06-20 02:00:00,
2013-06-19 20:00:00,80.0,41.0,-100.00,North,-999,-999.0,-999.0,25,0.00,,,0.00,,2013-06-20 03:00:00,
2013-06-19 20:54:00,80.0,41.0,-100.00,North,-999,-999.0,-999.0,25,0.00,,,0.00,,2013-06-20 03:54:00,
2013-06-19 21:00:00,77.0,42.0,-100.00,North,-999,-999.0,-999.0,28,0.00,,,0.00,,2013-06-20 04:00:00,
2013-06-19 21:54:00,77.0,42.0,-100.00,North,-999,-999.0,-999.0,28,0.00,,,0.00,,2013-06-20 04:54:00,
2013-06-19 22:00:00,77.0,43.0,-100.00,North,-999,-999.0,-999.0,30,0.00,,,0.00,,2013-06-20 05:00:00,
2013-06-19 23:00:00,73.0,43.0,-100.00,North,-999,-999.0,-999.0,34,0.00,,,0.00,,2013-06-20 06:00:00,